Kezdőlap
METAR-TAF:

METAR-TAF

Repülőterek :

Storm Lake Municipal Airport

Storm Lake, Iowa, Amerikai Egyesült Államok

földrajzi szélesség: 42-36N, földrajzi hosszúság: 095-14W, magasság: 454 m

Jelenlegi meteorológiai megfigyelések

A jelentés 18 perccel ezelõtt készült, 10:35 UTC
Keleti szél 13 kt
Hőmérséklet 14°C
Páratartalom 44%
Légköri nyomás 1015 hPa
Látótávolság: 16.1 km
Derült ég

METAR: KSLB 171035Z AUTO 09013KT 10SM CLR 14/02 A2997 RMK AO2

Idő: 05:53 (10:53 UTC)


TAF: hiányzik

Meteorológiai megfigyelések és előrejelzések több, mint 4000 repülőtéren (METAR és TAF jelentéseket).

A térképen piros és sárga pontok jelzik az elérhető meteorológiai állomásokat.

Mozgassa az egeret a pont fölött, hogy megjelenjen az állomás neve.

Azután kattintson az időjárási megfigyelések és előrejelzések megtekintéséhez.

A térkép megváltoztatása: kattintson a fekete keresztel jelölt zöld gombra ráközelítéshez, a vonallal jelölt zöld gombra távolításhoz, vagy a zöld nyilakra a szomszédos térképek eléréséhez.


METAR-TAF: